Regional Weather Roundup
Issued by NWS Cleveland, OH

Home | Current Version | Previous Version | Graphics & Text | Print | Product List | Glossary On
Versions: 1 2 3 4 5 6 7 8 9 10 11 12 13 14 15 16 17 18 19 20 21 22 23 24 25 26 27 28 29 30 31 32 33 34 35 36 37 38 39 40 41 42 43 44 45 46 47 48 49 50
000
ASUS41 KCLE 291510
RWRCLE
OHIO REGIONAL WEATHER ROUNDUP
NATIONAL WEATHER SERVICE CLEVELAND, OH
1100 AM EDT FRI MAY 29 2015

NOTE: "FAIR" INDICATES FEW OR NO CLOUDS BELOW 12,000 FEET WITH NO
SIGNIFICANT WEATHER AND/OR OBSTRUCTIONS TO VISIBILITY.

OHZ001>008-015>018-024>027-034-035-043-044-291600-
   NORTHWEST OHIO

CITY           SKY/WX    TMP DP  RH WIND       PRES   REMARKS
DEFIANCE       CLOUDY    73  66  78 S7        30.14R
FINDLAY        LGT RAIN  69  67  93 S5        30.13S FOG
TOLEDO EXPRESS LGT RAIN  70  66  87 VRB3      30.13S
TOLEDO EXEC    CLOUDY    73  64  73 S10       30.14S
LIMA           PTSUNNY   73  67  81 S7        30.14F
$$

OHZ009>014-019>023-028>033-038-089-291600-
   NORTHEAST OHIO

CITY           SKY/WX    TMP DP  RH WIND       PRES   REMARKS
CLE-HOPKINS    CLOUDY    78  62  57 SE7       30.17F
CLE-LAKEFRONT  PTSUNNY   78  61  55 S13       30.14F
CUY CO. ARPT   PTSUNNY   81  63  54 S9        30.17F
LORAIN-ELYRIA  PTSUNNY   76  62  62 S12       30.16F
ASHTABULA      SUNNY     76  60  57 S12       30.19F
AKRON-CANTON   PTSUNNY   76  61  59 S6        30.19S
WOOSTER        PTSUNNY   74  63  68 S8        30.19S
MANSFIELD      PTSUNNY   76  63  64 S12       30.17F
YOUNGSTOWN     PTSUNNY   75  59  57 SE10      30.20F
$$

OHZ042-051>053-060>062-070>072-077>081-291600-
  SOUTHWEST OHIO

CITY           SKY/WX    TMP DP  RH WIND       PRES   REMARKS
CINC-COVINGTON CLOUDY    74  67  78 S13       30.17R
CINC-LUNKEN    CLOUDY    74  69  85 S10       30.17R
HAMILTON       PTSUNNY   75  68  78 S3        30.17R
DAYTON         CLOUDY    76  68  76 S12       30.16S
WRIGHT-PAT AFB PTSUNNY   77  67  72 S12       30.15S
DAYTON GENERAL PTSUNNY   74  68  81 S12       30.16R
WILMINGTON     PTSUNNY   77  65  66 SW15      30.16S
$$

OHZ036-037-039>041-045>050-054>059-063>069-073>076-082>088-291600-
  CENTRAL AND SOUTHEAST OHIO

CITY           SKY/WX    TMP DP  RH WIND       PRES   REMARKS
COLUMBUS       CLOUDY    77  65  66 S8        30.16S
OSU AIRPORT    MOSUNNY   80  65  59 S13       30.16S
BOLTON FIELD   MOSUNNY   79  66  65 S10       30.16F
RICKENBACK AFB MOSUNNY   77  66  70 S9        30.15S
NEWARK         PTSUNNY   78  66  66 S3        30.16F
MARION         PTSUNNY   78  64  61 S15       30.16S
LANCASTER      PTSUNNY   79  65  62 SW8       30.17F
ZANESVILLE     NOT AVBL
NEW PHILLY     PTSUNNY   78  64  61 SE7       30.19F
$$


USA.gov is the U.S. government's official web portal to all federal, state and local government web resources and services.